User: anonymous   Login
Location: Newark
(35.4036°N, 80.4356°W)
Time: 03:07:07
(UTC+00:00)
Language:

RS-15 - Orbit

View from above orbital plane
View from above orbital plane
View from above satellite
View from above satellite

Ground track
Ground track

The orbit data is extracted from the following two-line orbital elements,

1 23439U 94085A   19261.48807264 -.00000044 +00000-0 -35959-4 0  9990
2 23439 064.8187 327.6801 0145468 095.4055 266.3482 11.27568152018244
Epoch (UTC): 18 September 2019 11:42:49
Eccentricity: 0.0145468
inclination: 64.8187°
perigee height: 1900 km
apogee height: 2144 km
right ascension of ascending node: 327.6801°
argument of perigee: 95.4055°
revolutions per day: 11.27568152
mean anomaly at epoch: 266.3482°
orbit number at epoch: 1824

The dashed part of the orbit path shows where the satellite is in the earth's shadow,  

DLR